Regional Weather Roundup
Issued by NWS

Home | Current Version | Previous Version | Text Only | Print | Product List | Glossary Off
Versions: 1 2 3 4 5 6 7 8 9 10 11 12 13 14 15 16 17 18 19 20 21 22 23 24 25 26 27 28 29 30 31 32 33 34 35 36 37 38 39 40 41 42 43 44 45 46 47 48 49 50

912
ASUS43 KLOT 172204
RWRIL

ILLINOIS REGIONAL WEATHER ROUNDUP
NATIONAL WEATHER SERVICE CHICAGO/ROMEOVILLE IL
400 PM CST FRI NOV 17 2017

NOTE: "FAIR" INDICATES FEW OR NO CLOUDS BELOW 12,000 FEET WITH NO
SIGNIFICANT WEATHER AND/OR OBSTRUCTIONS TO VISIBILITY.

* THESE STATIONS ARE NOT UNDER NWS QUALITY CONTROL. THEY ALSO MAY NOT
  REPORT WEATHER SUCH AS PRECIPITATION OR FOG.

ILZ001-002-007-009-015-016-024-172300-
NORTHWEST ILLINOIS

CITY           SKY/WX    TMP DP  RH WIND       PRES   REMARKS
MOLINE         CLOUDY    45  40  82 SE7       29.63F HAZE
STERLING*      LGT RAIN  42  38  85 SE12G17   29.68F
SAVANNA*       CLOUDY    41  39  94 S8        29.66F FOG
$$

ILZ003-004-008-010-011-017-018-172300-
NORTH CENTRAL ILLINOIS

CITY           SKY/WX    TMP DP  RH WIND       PRES   REMARKS
ROCKFORD       CLOUDY    39  35  86 SE15      29.72F WCI  31
FREEPORT*      DRIZZLE   38  37  93 SE12      29.69F WCI  31
ROCHELLE*      CLOUDY    38  36  91 SE15G25   29.70F WCI  30
DE KALB*       CLOUDY    39  36  88 S20       29.73F WCI  29
PERU*          TSTM      39  37  91 SE15      29.72F WCI  31
$$

ILZ005-006-012>014-019>023-172300-
NORTHEAST ILLINOIS

CITY           SKY/WX    TMP DP  RH WIND       PRES   REMARKS
CHICAGO-OHARE  CLOUDY    42  36  79 S17       29.75F
CHICAGO-MIDWAY CLOUDY    44  37  76 SE14G21   29.77F
AURORA         CLOUDY    41  36  82 SE15G22   29.75F
LANSING*       CLOUDY    43  37  78 S14G20    29.81F
JOLIET*        CLOUDY    43  37  81 SE12G17   29.76F
WAUKEGAN       CLOUDY    40  37  89 S14       29.76F FOG
DUPAGE AIRPORT CLOUDY    40  37  89 SE14      29.74F FOG
KANKAKEE*      CLOUDY    43  35  73 SE14G22   29.79F
WHEELING       CLOUDY    41  39  93 S14       29.77F
MORRIS*        LGT RAIN  40  37  89 SE12      29.73F
ROMEOVILLE*    CLOUDY    41  36  83 S14       29.76F
NORTHERLY ISL    N/A     42  35  76 SE16        N/A
$$

LMZ740>746-172300-
SOUTHERN LAKE MICHIGAN

STATION/POSITION SKY/WX   TEMP    WIND        PRES    VSBY  WAVE
                          AIR SEA DIR/SP/G                  HT/PER
                          (F)     (DEG/KT/KT) (MB)    (MI)  (FT/S)
SOUTHERN BUOY              46 50  140/ 23/ 27 1009.9          6/ 6
HARRISON CRIB              45     170/ 25/ 28   N/A
BURNHAM HARBOR             42     140/ 12/ 16   N/A
BURNS HARBOR               44     170/ 13/ 18 1010.5F
MICHIGAN CITY              44     140/ 14/ 16   N/A
$$

ILZ025>027-034>036-040-047-049-050-058-095>099-172300-
WEST-CENTRAL ILLINOIS

CITY           SKY/WX    TMP DP  RH WIND       PRES   REMARKS
QUINCY         CLOUDY    52  43  71 SE9       29.62S
GALESBURG*     CLOUDY    45  41  86 SE7       29.67F
MACOMB*        CLOUDY    47  42  82 S14       29.67F
JACKSONVILLE*  CLOUDY    51  44  76 SE14G22   29.67F
PITTSFIELD*    CLOUDY    54  46  74 SE13      29.65F
$$

ILZ028>032-037-038-041>044-048-051>054-059>061-172300-
CENTRAL ILLINOIS

CITY           SKY/WX    TMP DP  RH WIND       PRES   REMARKS
PONTIAC        TSTM      43  42  97 S24       29.73F
BLOOMINGTON    CLOUDY    42  39  89 S21       29.72F
DECATUR        CLOUDY    45  39  79 SE15G24   29.76F
PEORIA         CLOUDY    44  41  89 S14       29.70F
LACON*         CLOUDY    42  41  96 S8        29.70F THUNDER FOG
LINCOLN*       CLOUDY    46  42  84 S16G25    29.71F
SPRINGFIELD    CLOUDY    50  43  77 S16G24    29.72F
TAYLORVILLE    CLOUDY    47  41  80 SE16G23   29.74F
$$

ILZ033-039-045-046-055>057-062-063-172300-
EAST-CENTRAL ILLINOIS

CITY           SKY/WX    TMP DP  RH WIND       PRES   REMARKS
CHAMPAIGN      CLOUDY    44  38  79 SE17G24   29.80F
DANVILLE*      CLOUDY    43  35  73 SE13      29.81F
RANTOUL*       CLOUDY    44  39  85 S18G24    29.79F
MATTOON        CLOUDY    44  39  82 S20       29.81F
PARIS*         CLOUDY    44  39  82 SE13      29.87F
$$

ILZ079-100>102-172300-
SOUTHWEST ILLINOIS

CITY           SKY/WX    TMP DP  RH WIND       PRES   REMARKS
ALTON          CLOUDY    54  46  76 S15       29.75F
BELLEVILLE     MOCLDY    54  44  69 S12       29.74F
CAHOKIA*       CLOUDY    54  44  69 S14G21    29.74F
SPARTA*        CLOUDY    54  44  70 S14G21    29.78F
$$

ILZ064>066-069>071-074>076-080>082-084>086-088>090-092>094-172300-
SOUTH-CENTRAL ILLINOIS

CITY           SKY/WX    TMP DP  RH WIND       PRES   REMARKS
CARBONDALE     CLOUDY    56  45  66 SE14      29.81F
CAIRO*         CLOUDY    60  49  66 SE13      29.84F
EFFINGHAM*     CLOUDY    46  42  88 SE13G18   29.84F
MARION         CLOUDY    57  45  62 S12       29.84F
MT. VERNON     MOCLDY    50  42  74 SE7       29.83F
CENTRALIA*     CLOUDY    52  44  74 SE14      29.80F
SALEM*         MOCLDY    49  41  74 SE13      29.81F
METROPOLIS*    CLOUDY    60  46  60 SE6       29.87F
$$

ILZ067-068-072-073-078-083-087-091-172300-
SOUTHEAST ILLINOIS

CITY           SKY/WX    TMP DP  RH WIND       PRES   REMARKS
LAWRENCEVILLE  CLOUDY    48  39  71 SE12      29.90F
FLORA*         CLOUDY    48  42  79 SE14      29.84F
FAIRFIELD*     CLOUDY    47  42  81 SE7       29.85F
HARRISBURG*    CLOUDY    53  44  71 SE9       29.87F
ROBINSON*      CLOUDY    46  38  74 SE10      29.89F
CARMI*         CLOUDY    48  42  80 SE8       29.89F
$$

ABBREVIATIONS USED IN REMARKS
   TC - TEMPERATURE IN CELSIUS
  WCI - WIND CHILL INDEX
   HX - HEAT INDEX
  VSB - VISIBILITY
$$





USA.gov is the U.S. government's official web portal to all federal, state and local government web resources and services.